[[{"header":{"parameterUnit":"m.s-1","parameterCategory":1,"la1":30.2991,"la2":30.254,"lo1":-89.0895,"lo2":-89.0444,"dy":0.0017,"dx":0.0017,"nx":28,"ny":28,"refTime":"2025-06-07T03:00:00:Z","depth":0,"parameterNumber":2,"parameterNumberName":"U-component_of_WINDS"},"data":[0,0,0,0,0,0,0,0,0,0,0,0,0,0,0,0,0,0,0,0,0,0,0,0,0,0,0,0,0,0,0,0,0,0,0,0,0,0,0,0,0,0,0,0,0,0,0,0,0,0,0,0,0,0,0,0,0,0,1.684,1.6841,0,1.6925,1.6926,1.6927,1.6974,1.6975,1.6975,1.6975,1.7064,1.7066,1.7069,0,0,0,0,0,0,0,0,0,0,0,0,0,1.672,1.6722,1.684,1.6841,1.6842,1.6925,1.6926,1.6928,1.6974,1.6975,1.6975,1.6975,1.7063,1.7066,1.7069,0,0,0,0,0,0,0,0,0,0,0,0,0,1.6785,1.6723,1.684,1.6875,1.6879,1.6925,1.6927,1.6928,1.6974,1.6975,1.6975,1.6975,1.7063,1.7066,1.7069,1.7087,0,0,1.708,1.7081,0,0,0,0,0,0,0,0,1.6782,1.679,1.6869,1.6873,1.6878,1.6939,1.6917,1.6981,1.6974,1.6938,1.6975,1.6975,1.7023,1.7029,1.7045,1.7091,1.7095,1.708,1.7082,1.7083,1.7084,0,0,0,0,0,0,0,1.6777,1.6786,1.6874,1.687,1.6875,1.6888,1.6898,1.6929,1.6979,1.6941,1.6945,1.6954,1.7025,1.7042,1.7048,1.7096,1.708,1.7083,1.7085,1.7086,1.7162,1.7162,0,0,0,0,0,0,1.6766,1.6782,1.6871,1.6876,1.6829,1.689,1.6901,1.6919,1.6978,1.6987,1.6954,1.6956,1.7036,1.7044,1.7051,1.7076,1.7083,1.7087,1.7089,1.7162,1.7162,1.7162,0,0,0,0,0,0,1.6764,1.6774,1.6868,1.683,1.6843,1.6892,1.6913,1.6921,1.6938,1.6988,1.6997,1.6962,1.7036,1.7046,1.7078,1.7079,1.7088,1.7091,1.7162,1.7162,1.7162,1.7125,0,0,0,0,0,0,1.676,1.6773,1.6779,1.683,1.6845,1.6892,1.6913,1.6923,1.6943,1.6947,1.6998,1.7006,1.7037,1.7072,1.7081,1.7084,1.7094,1.7162,1.7162,1.7162,1.7126,1.7123,1.7121,0,0,0,0,0,1.6756,1.6765,1.6779,1.6789,1.6854,1.6892,1.69,1.6935,1.6943,1.695,1.6983,1.7005,1.7078,1.7075,1.7085,1.7089,1.7162,1.7162,1.7162,1.7127,1.7124,1.7121,0,0,0,0,0,0,1.6713,1.6772,1.6788,1.6814,1.6848,1.6899,1.6909,1.6931,1.6963,1.6965,1.7007,1.7018,1.7046,1.7071,1.7067,1.711,1.7122,1.7124,1.7092,1.709,1.7087,1.708,1.7097,0,0,0,0,0,1.6706,1.6731,1.6783,1.6801,1.6817,1.686,1.6878,1.6902,1.6938,1.6953,1.6988,1.7023,1.7054,1.7073,1.7105,1.713,1.7142,1.7138,1.7136,1.7134,1.7135,1.7151,1.715,1.7162,1.7162,1.7162,0,0,1.6693,1.6729,1.6742,1.6793,1.6821,1.6847,1.6871,1.6898,1.6918,1.6957,1.6989,1.7016,1.7058,1.7087,1.7101,1.7108,1.7135,1.7134,1.7131,1.7134,1.7151,1.715,1.7149,1.7162,1.7162,1.7162,0,0,1.6682,1.6711,1.673,1.6759,1.6802,1.6831,1.6836,1.6885,1.6904,1.6937,1.6967,1.6992,1.7045,1.7074,1.7095,1.7098,1.7119,1.7107,1.7094,1.7109,1.7108,1.7108,1.7109,1.7109,1.7108,1.7108,1.7108,0,1.666,1.6699,1.6737,1.6762,1.6784,1.6821,1.6841,1.6867,1.6918,1.6933,1.6941,1.7008,1.7039,1.7076,1.7076,1.7093,1.71,1.7101,1.7105,1.7105,1.7105,1.7107,1.7107,1.7106,1.7106,1.7107,1.7107,0,1.6671,1.6698,1.6708,1.6757,1.678,1.6802,1.6844,1.6864,1.6887,1.6915,1.6949,1.6988,1.7028,1.7039,1.7061,1.7079,1.7082,1.7097,1.711,1.7102,1.7104,1.7105,1.7104,1.7104,1.7105,1.7105,0,0,1.6632,1.6703,1.6706,1.6729,1.6781,1.6803,1.6828,1.6867,1.6883,1.6918,1.694,1.6985,1.6999,1.7024,1.7051,1.7064,1.7064,1.7078,1.708,1.7074,1.7087,1.7074,1.7074,1.7079,1.708,1.708,1.7083,0,1.6628,1.6674,1.6709,1.6742,1.6768,1.6805,1.6827,1.6861,1.689,1.6917,1.6949,1.6979,1.6996,1.7012,1.7027,1.7061,1.7067,1.7061,1.7101,1.7102,1.7088,1.7076,1.7062,1.7063,1.7084,1.7084,1.7085,0,1.6629,1.6662,1.6697,1.6748,1.676,1.6779,1.6818,1.6844,1.6885,1.6905,1.6933,1.6961,1.699,1.7001,1.7042,1.7037,1.7056,1.7076,1.7077,1.7081,1.7092,1.7079,1.7065,1.7064,1.7086,1.7086,1.7086,0,1.6597,1.6651,1.6679,1.6698,1.6758,1.677,1.6796,1.6837,1.6859,1.6894,1.6909,1.6947,1.6968,1.6997,1.7035,1.704,1.7073,1.7087,1.7091,1.7089,1.7095,1.7094,1.7082,1.7108,1.7108,1.7108,1.7108,0,1.6588,1.6607,1.6666,1.6683,1.6707,1.6749,1.6772,1.6801,1.6837,1.6862,1.6897,1.6919,1.6968,1.6997,1.7027,1.7057,1.7066,1.7083,1.7091,1.708,1.7077,1.7092,1.7092,1.7108,1.7108,1.7108,1.7108,0,1.6555,1.6595,1.6628,1.6683,1.6697,1.6712,1.6759,1.6778,1.6809,1.684,1.6849,1.6898,1.6934,1.6975,1.7024,1.7045,1.7072,1.7084,1.7058,1.7062,1.7063,1.7062,1.706,1.7062,1.7086,1.7086,1.7086,0,1.6546,1.6562,1.6619,1.6637,1.6662,1.6692,1.6715,1.6758,1.678,1.6829,1.6842,1.6881,1.6913,1.6969,1.7009,1.7048,1.706,1.7057,1.7066,1.7054,1.706,1.7058,1.706,1.7054,1.7053,1.7053,1.7053,0,1.6525,1.6545,1.6576,1.6615,1.6641,1.6674,1.6709,1.6722,1.6773,1.6796,1.6833,1.6859,1.691,1.6948,1.6991,1.7019,1.7044,1.705,1.7053,1.704,1.7025,1.7033,1.705,1.7049,1.7049,1.705,1.705,1.705,1.6503,1.652,1.6563,1.6597,1.6628,1.666,1.6681,1.6715,1.6747,1.6791,1.6815,1.6852,1.6895,1.6956,1.6983,1.7013,1.7021,1.7025,1.7026,1.7026,1.7023,1.7021,1.7021,1.7021,1.7021,1.7022,1.7022,0,1.6484,1.6514,1.6545,1.6593,1.662,1.6643,1.6683,1.6704,1.6736,1.6774,1.6806,1.6849,1.6887,1.6931,1.6972,1.6988,1.7,1.6997,1.6996,1.7002,1.7013,1.7006,1.6986,1.6986,1.6986,1.6986,1.6986,1.6986,1.6477,1.6506,1.6532,1.6578,1.6608,1.6644,1.6665,1.6695,1.6726,1.6773,1.6804,1.6833,1.6874,1.6918,1.6954,1.6967,1.698,1.6973,1.6988,1.6998,1.7001,1.7004,1.6997,1.6975,1.6975,1.6974,1.6974,1.6974]},{"header":{"parameterUnit":"m.s-1","parameterCategory":1,"la1":30.2991,"la2":30.254,"lo1":-89.0895,"lo2":-89.0444,"dy":0.0017,"dx":0.0017,"nx":28,"ny":28,"refTime":"2025-06-07T03:00:00:Z","depth":0,"parameterNumber":3,"parameterNumberName":"V-component_of_WINDS"},"data":[0,0,0,0,0,0,0,0,0,0,0,0,0,0,0,0,0,0,0,0,0,0,0,0,0,0,0,0,0,0,0,0,0,0,0,0,0,0,0,0,0,0,0,0,0,0,0,0,0,0,0,0,0,0,0,0,0,0,5.2545,5.2545,0,5.2595,5.2596,5.2596,5.261,5.2609,5.2609,5.2609,5.2654,5.2656,5.2657,0,0,0,0,0,0,0,0,0,0,0,0,0,5.2455,5.2456,5.2545,5.2546,5.2546,5.2595,5.2596,5.2596,5.261,5.2609,5.2609,5.2609,5.2654,5.2655,5.2657,0,0,0,0,0,0,0,0,0,0,0,0,0,5.2498,5.2457,5.2545,5.2559,5.2561,5.2595,5.2596,5.2597,5.261,5.2609,5.2609,5.2609,5.2653,5.2655,5.2657,5.2679,0,0,5.2664,5.2665,0,0,0,0,0,0,0,0,5.2495,5.2501,5.2556,5.2558,5.256,5.2596,5.2581,5.2624,5.261,5.2591,5.2609,5.2608,5.2635,5.2638,5.2649,5.2681,5.2683,5.2664,5.2666,5.2667,5.2667,0,0,0,0,0,0,0,5.2492,5.2499,5.2565,5.2557,5.2559,5.2561,5.2566,5.2589,5.2614,5.2593,5.2594,5.26,5.2636,5.2646,5.265,5.2684,5.2664,5.2666,5.2668,5.2668,5.2737,5.2738,0,0,0,0,0,0,5.2488,5.2497,5.2563,5.2566,5.2526,5.2563,5.2569,5.2585,5.2614,5.2618,5.26,5.26,5.2643,5.2647,5.2651,5.2679,5.2667,5.2669,5.267,5.2737,5.2737,5.2738,0,0,0,0,0,0,5.2486,5.2494,5.2561,5.2532,5.254,5.2565,5.2582,5.2586,5.2597,5.262,5.2624,5.2607,5.2643,5.2648,5.2673,5.2681,5.267,5.2672,5.2736,5.2737,5.2737,5.2734,0,0,0,0,0,0,5.2483,5.2493,5.2503,5.2532,5.2542,5.2583,5.2583,5.2587,5.2601,5.2602,5.2627,5.2631,5.2643,5.2669,5.2675,5.2683,5.2673,5.2735,5.2736,5.2737,5.2734,5.2735,5.2736,0,0,0,0,0,5.248,5.2498,5.2503,5.2511,5.2555,5.2584,5.2589,5.2604,5.2602,5.2611,5.2626,5.263,5.2679,5.2672,5.2678,5.2687,5.2735,5.2736,5.2737,5.2733,5.2735,5.2736,0,0,0,0,0,0,5.2467,5.2503,5.2508,5.2537,5.2558,5.2586,5.2598,5.2605,5.2625,5.2624,5.264,5.2645,5.2669,5.268,5.2672,5.271,5.2707,5.2709,5.2702,5.2703,5.2704,5.27,5.2675,0,0,0,0,0,5.2468,5.249,5.2519,5.2542,5.2552,5.2573,5.2586,5.2596,5.2617,5.2625,5.2642,5.266,5.268,5.2692,5.2711,5.2736,5.2741,5.2745,5.2746,5.2747,5.2748,5.2762,5.2764,5.2741,5.2741,5.2741,0,0,5.2469,5.2492,5.2504,5.254,5.2557,5.2578,5.258,5.2602,5.2617,5.2628,5.2653,5.2665,5.2687,5.2711,5.2723,5.2722,5.2756,5.2748,5.2749,5.275,5.2763,5.2765,5.2767,5.2742,5.2742,5.2742,0,0,5.2483,5.2502,5.2523,5.2541,5.2568,5.2582,5.2587,5.2615,5.2624,5.265,5.2658,5.2675,5.2709,5.2724,5.2736,5.2755,5.276,5.2761,5.2766,5.2779,5.2781,5.2782,5.2789,5.2791,5.2763,5.2763,5.2763,0,5.248,5.2514,5.2533,5.2555,5.257,5.2583,5.2603,5.2619,5.2649,5.2658,5.2657,5.27,5.2715,5.2743,5.2748,5.2758,5.2763,5.2758,5.2779,5.2781,5.2783,5.2789,5.2792,5.2763,5.2763,5.2763,5.2763,0,5.251,5.2533,5.2547,5.2579,5.2595,5.2616,5.2636,5.265,5.2659,5.2672,5.2698,5.2717,5.274,5.2748,5.2755,5.2777,5.2775,5.2777,5.2773,5.2785,5.2791,5.2794,5.2763,5.2763,5.2763,5.2763,0,0,5.2516,5.2559,5.2563,5.2578,5.2609,5.2626,5.2647,5.2673,5.2684,5.2704,5.2722,5.275,5.2752,5.2765,5.2775,5.2786,5.28,5.2786,5.2787,5.2788,5.2825,5.2823,5.2826,5.2804,5.2804,5.2805,5.2823,0,5.2532,5.2574,5.2591,5.2623,5.2644,5.2657,5.2675,5.2695,5.2708,5.2727,5.274,5.2761,5.2761,5.277,5.2782,5.2796,5.2808,5.2795,5.2818,5.2819,5.2812,5.2829,5.2828,5.2844,5.2825,5.2826,5.2826,0,5.2558,5.2581,5.2616,5.2645,5.2655,5.2671,5.2696,5.2714,5.2736,5.2744,5.276,5.2769,5.279,5.2786,5.2815,5.2806,5.2816,5.2824,5.2825,5.2828,5.2823,5.2832,5.285,5.2852,5.283,5.283,5.283,0,5.2558,5.2598,5.2625,5.2637,5.2671,5.2682,5.2696,5.2719,5.2733,5.2753,5.2762,5.2784,5.2796,5.2812,5.2826,5.2822,5.2853,5.285,5.2859,5.2859,5.2865,5.2864,5.2885,5.2872,5.2872,5.2872,5.2872,0,5.2575,5.2596,5.2625,5.2641,5.2665,5.2684,5.2705,5.272,5.274,5.2757,5.2769,5.2785,5.2803,5.2821,5.2831,5.2853,5.2858,5.2865,5.2867,5.2864,5.2863,5.287,5.2869,5.2873,5.2873,5.2872,5.2872,0,5.2579,5.26,5.263,5.2661,5.2669,5.2684,5.271,5.2725,5.2739,5.2761,5.2767,5.2789,5.2811,5.2827,5.2854,5.2861,5.2884,5.2887,5.2877,5.2879,5.2887,5.2886,5.2913,5.2917,5.2902,5.2902,5.2902,0,5.2588,5.2605,5.2639,5.2653,5.2668,5.269,5.2705,5.2724,5.2739,5.2766,5.2777,5.28,5.2819,5.2853,5.287,5.289,5.2893,5.2901,5.2896,5.2892,5.2893,5.2892,5.2893,5.2902,5.2902,5.2902,5.2902,0,5.2602,5.2612,5.2635,5.2662,5.268,5.2701,5.2722,5.2733,5.2755,5.2771,5.2794,5.2809,5.2838,5.286,5.2883,5.2895,5.2902,5.2904,5.2907,5.2903,5.2897,5.29,5.2879,5.2903,5.2903,5.2903,5.2902,5.2902,5.2609,5.2625,5.2652,5.2676,5.2695,5.2714,5.2731,5.2748,5.2769,5.2795,5.2805,5.2829,5.285,5.2881,5.2894,5.2912,5.2912,5.2916,5.2917,5.2918,5.2918,5.2895,5.2916,5.2916,5.2916,5.2916,5.2916,0,5.2624,5.2642,5.2665,5.2696,5.2715,5.2722,5.2746,5.2761,5.2783,5.2803,5.2823,5.2849,5.2871,5.289,5.2912,5.2922,5.2926,5.2927,5.2927,5.2929,5.2917,5.2912,5.2924,5.2924,5.2924,5.2924,5.2924,5.2924,5.2634,5.2661,5.2674,5.271,5.2727,5.2753,5.2766,5.2783,5.28,5.283,5.2849,5.2862,5.2882,5.2905,5.2925,5.293,5.2937,5.2938,5.2943,5.2931,5.293,5.2929,5.2925,5.294,5.294,5.2954,5.2955,5.2955]}]]